Location: Ammerl�gen
(47.2167°N, 9.6000°E)
Time: 06:55:27
(UTC+00:00)

Cosmos 1610 Rocket - Pass Details

Date: 21 April 2021
Orbit: 952 x 1003 km, 82.9° (Epoch: 15 May)

Event Time Altitude Azimuth Distance (km) Brightness Sun altitude
Rises 23:24:31 0° 352° (N) 3,687 8.7 -30.6°
Reaches altitude 10° 23:27:04 10° 354° (N) 2,728 7.7 -30.6°
Enters shadow 23:33:07 77° 58° (ENE) 994 4.4 -30.5°
